GW4109 Weather Reports


time (UTC)temp
F
wind
direction
speed
knots
gust
knots
rain 1hr
in
rain 24hr
in
rain mn
in
humidity
%
barometer
mb
20260905171015 97 142 2.6 4.3 0.00 0.00 0.00 9 1016.8
20260905170512 96 173 1.7 2.6 0.00 0.00 0.00 9 1016.7
20260905170007 95 112 2.6 4.3 0.00 0.00 0.00 9 1016.8
20260905165501 96 102 1.7 1.7 0.00 0.00 0.00 9 1016.8
20260905164955 93 27 0.9 3.5 0.00 0.00 0.00 10 1016.7
20260905164450 92 75 1.7 1.7 0.00 0.00 0.00 10 1016.6
20260905163945 90 30 0.9 1.7 0.00 0.00 0.00 11 1016.8
20260905163442 91 89 2.6 2.6 0.00 0.00 0.00 10 1016.6
20260905162937 89 319 0.0 1.7 0.00 0.00 0.00 10 1016.6
20260905162433 89 88 1.7 1.7 0.00 0.00 0.00 10 1016.7
20260905161927 89 245 0.0 1.7 0.00 0.00 0.00 10 1016.6
20260905161426 89 293 1.7 3.5 0.00 0.00 0.00 9 1016.7
20260905160925 89 297 1.7 1.7 0.00 0.00 0.00 10 1016.6
20260905160419 88 328 1.7 3.5 0.00 0.00 0.00 11 1016.3
20260905155918 88 331 0.9 2.6 0.00 0.00 0.00 10 1016.5
20260905155419 88 262 2.6 3.5 0.00 0.00 0.00 9 1016.7
20260905154917 87 257 3.5 5.2 0.00 0.00 0.00 9 1016.7
20260905154413 87 269 0.0 2.6 0.00 0.00 0.00 10 1016.9
20260905153909 88 237 0.0 1.7 0.00 0.00 0.00 10 1016.7
20260905153405 89 205 0.9 1.7 0.00 0.00 0.00 11 1016.6
20260905152904 90 232 1.7 1.7 0.00 0.00 0.00 10 1016.7
20260905152404 92 132 0.0 0.9 0.00 0.00 0.00 10 1016.7
20260905151859 91 27 0.0 0.9 0.00 0.00 0.00 10 1016.6
20260905151354 91 44 0.0 1.7 0.00 0.00 0.00 11 1016.3
20260905150849 89 330 0.9 1.7 0.00 0.00 0.00 10 1016.5
20260905150343 89 72 0.0 1.7 0.00 0.00 0.00 11 1016.3
20260905145841 86 36 0.9 1.7 0.00 0.00 0.00 12 1016.3
20260905145341 81 347 1.7 1.7 0.00 0.00 0.00 13 1016.2
20260905144839 80 9 0.0 1.7 0.00 0.00 0.00 15 1016.1
20260905144335 80 6 1.7 2.6 0.00 0.00 0.00 14 1016.1
20260905143834 81 294 1.7 1.7 0.00 0.00 0.00 12 1016.2
20260905143328 80 222 0.9 1.7 0.00 0.00 0.00 13 1016.1
20260905142828 79 67 0.9 2.6 0.00 0.00 0.00 13 1016.0
20260905142321 79 282 0.0 1.7 0.00 0.00 0.00 13 1016.0
20260905141818 78 194 0.9 2.6 0.00 0.00 0.00 13 1015.8
20260905141313 79 67 1.7 2.6 0.00 0.00 0.00 12 1015.9
20260905140808 78 126 0.0 1.7 0.00 0.00 0.00 12 1015.8
20260905140303 77 175 1.7 1.7 0.00 0.00 0.00 14 1015.8
20260905135801 77 72 0.0 1.7 0.00 0.00 0.00 14 1015.6
20260905135258 77 107 2.6 3.5 0.00 0.00 0.00 15 1015.5
20260905134757 78 63 2.6 2.6 0.00 0.00 0.00 15 1015.5
20260905134251 81 274 1.7 3.5 0.00 0.00 0.00 13 1015.4
20260905133745 84 179 0.0 2.6 0.00 0.00 0.00 11 1015.0
20260905133241 84 275 3.5 4.3 0.00 0.00 0.00 11 1015.4
20260905132740 83 230 3.5 7.8 0.00 0.00 0.00 11 1015.1
20260905132235 83 0 1.7 3.5 0.00 0.00 0.00 11 1015.1
20260905131730 81 66 0.0 2.6 0.00 0.00 0.00 12 1015.1
20260905131225 78 266 0.9 3.5 0.00 0.00 0.00 13 1015.0
20260905130720 78 318 1.7 2.6 0.00 0.00 0.00 14 1014.9
20260905130219 78 334 1.7 2.6 0.00 0.00 0.00 14 1015.0
20260905125715 78 341 2.6 3.5 0.00 0.00 0.00 14 1015.2
20260905125210 78 228 0.0 0.9 0.00 0.00 0.00 15 1015.1
20260905124706 78 67 1.7 1.7 0.00 0.00 0.00 14 1015.2
20260905124201 79 116 0.0 0.9 0.00 0.00 0.00 15 1015.0
20260905123656 80 241 0.0 1.7 0.00 0.00 0.00 14 1015.0
20260905123154 81 338 0.9 3.5 0.00 0.00 0.00 13 1015.1
20260905122653 82 338 2.6 5.2 0.00 0.00 0.00 10 1015.0
20260905122148 80 233 2.6 3.5 0.00 0.00 0.00 11 1015.2
20260905121643 77 62 0.0 2.6 0.00 0.00 0.00 12 1015.0
20260905121138 76 45 0.0 1.7 0.00 0.00 0.00 17 1015.0
20260905120637 76 246 0.0 1.7 0.00 0.00 0.00 17 1015.3
20260905120132 80 354 0.9 5.2 0.00 0.00 0.00 14 1014.9
20260905115631 79 320 1.7 1.7 0.00 0.00 0.00 11 1014.8
20260905115126 80 307 1.7 4.3 0.00 0.00 0.00 13 1015.1
20260905114626 79 229 1.7 1.7 0.00 0.00 0.00 14 1015.0
20260905114125 78 252 1.7 2.6 0.00 0.00 0.00 13 1014.8
20260905113620 76 229 2.6 3.5 0.00 0.00 0.00 16 1015.0
20260905113115 78 215 0.9 1.7 0.00 0.00 0.00 17 1014.9
20260905112609 77 244 1.7 2.6 0.00 0.00 0.00 17 1014.9
20260905112106 79 248 1.7 1.7 0.00 0.00 0.00 16 1015.1
20260905111600 78 125 0.0 1.7 0.00 0.00 0.00 15 1015.1
20260905111059 80 92 0.0 2.6 0.00 0.00 0.00 15 1015.2
20260905110558 78 131 0.0 2.6 0.00 0.00 0.00 16 1015.1
20260905110049 76 159 1.7 2.6 0.00 0.00 0.00 17 1015.1
20260905105548 75 105 0.0 2.6 0.00 0.00 0.00 19 1015.2
20260905105048 74 114 0.9 1.7 0.00 0.00 0.00 20 1014.9
20260905104544 74 224 0.0 0.9 0.00 0.00 0.00 20 1014.9
20260905104043 74 71 0.0 0.9 0.00 0.00 0.00 20 1015.2
20260905103538 74 212 1.7 1.7 0.00 0.00 0.00 20 1015.1
20260905103035 75 146 0.0 0.9 0.00 0.00 0.00 21 1015.0
20260905102530 75 197 0.9 0.9 0.00 0.00 0.00 20 1014.8
20260905102026 75 242 0.0 1.7 0.00 0.00 0.00 20 1015.0
20260905101524 74 352 0.9 1.7 0.00 0.00 0.00 21 1014.8
20260905101023 74 230 1.7 3.5 0.00 0.00 0.00 20 1014.8
20260905100520 75 299 1.7 1.7 0.00 0.00 0.00 20 1014.9
20260905100020 75 255 0.0 1.7 0.00 0.00 0.00 19 1015.0
20260905095514 73 259 0.9 1.7 0.00 0.00 0.00 19 1015.1
20260905095009 75 15 0.0 1.7 0.00 0.00 0.00 20 1015.1
20260905094504 76 202 0.0 1.7 0.00 0.00 0.00 19 1015.1
20260905094004 76 316 0.9 1.7 0.00 0.00 0.00 19 1015.3
20260905093458 76 268 0.9 0.9 0.00 0.00 0.00 15 1015.1
20260905092955 76 25 0.0 1.7 0.00 0.00 0.00 15 1015.1
20260905092449 76 177 1.7 1.7 0.00 0.00 0.00 15 1015.2
20260905091945 77 150 0.9 1.7 0.00 0.00 0.00 16 1015.1
20260905091439 76 87 0.0 0.9 0.00 0.00 0.00 17 1015.2
20260905090939 77 239 2.6 2.6 0.00 0.00 0.00 19 1015.0
20260905090434 75 169 0.0 1.7 0.00 0.00 0.00 20 1015.2
20260905085933 76 232 0.0 1.7 0.00 0.00 0.00 20 1015.3
20260905085432 76 134 0.0 1.7 0.00 0.00 0.00 19 1015.3
20260905084928 76 37 0.0 1.7 0.00 0.00 0.00 19 1015.4
20260905084428 75 184 0.0 1.7 0.00 0.00 0.00 21 1015.5
20260905083922 74 197 0.9 1.7 0.00 0.00 0.00 23 1015.5
20260905083418 74 260 0.0 1.7 0.00 0.00 0.00 23 1015.5
20260905082914 75 29 0.0 1.7 0.00 0.00 0.00 23 1015.4
20260905082409 76 82 1.7 1.7 0.00 0.00 0.00 23 1015.4
20260905081904 78 359 1.7 1.7 0.00 0.00 0.00 19 1015.6
20260905081359 78 205 0.9 1.7 0.00 0.00 0.00 18 1015.6
20260905080858 78 105 0.0 1.7 0.00 0.00 0.00 19 1015.5
20260905080353 78 129 0.0 1.7 0.00 0.00 0.00 18 1015.5
20260905075851 77 215 0.0 1.7 0.00 0.00 0.00 20 1015.4
20260905075345 78 237 0.0 1.7 0.00 0.00 0.00 20 1015.5
20260905074844 80 300 1.7 1.7 0.00 0.00 0.00 18 1015.4
20260905074341 81 229 0.0 1.7 0.00 0.00 0.00 18 1015.6
20260905073836 77 16 0.9 1.7 0.00 0.00 0.00 21 1015.4
20260905073331 77 326 0.0 1.7 0.00 0.00 0.00 22 1015.5
20260905072826 77 297 0.0 0.9 0.00 0.00 0.00 22 1015.6
20260905072320 78 255 0.0 0.9 0.00 0.00 0.00 21 1015.4
20260905071817 77 142 1.7 1.7 0.00 0.00 0.00 22 1015.4
20260905071313 77 143 0.9 1.7 0.00 0.00 0.00 22 1015.4
20260905070807 78 208 0.0 1.7 0.00 0.00 0.00 22 1015.3
20260905070304 77 180 1.7 1.7 0.00 0.00 0.00 23 1015.1
20260905065803 77 224 0.0 1.7 0.00 0.00 0.00 24 1015.0
20260905065306 77 124 0.0 0.9 0.00 0.00 0.00 24 1015.1
20260905064758 79 126 0.0 1.7 0.00 0.00 0.00 23 1015.0
20260905064253 78 145 0.9 0.9 0.00 0.00 0.00 24 1015.0
20260905063751 77 253 1.7 1.7 0.00 0.00 0.00 25 1015.1
20260905063247 77 235 1.7 4.3 0.00 0.00 0.00 25 1015.2
20260905062738 76 219 2.6 2.6 0.00 0.00 0.00 25 1015.0
20260905062238 78 60 0.9 1.7 0.00 0.00 0.00 25 1015.0
20260905061738 77 11 0.9 1.7 0.00 0.00 0.00 25 1015.0
20260905061232 78 257 0.0 1.7 0.00 0.00 0.00 25 1015.0
20260905060726 79 57 1.7 2.6 0.00 0.00 0.00 24 1014.7
20260905060224 80 318 1.7 1.7 0.00 0.00 0.00 24 1015.0
20260905055721 82 89 0.0 1.7 0.00 0.00 0.00 23 1014.6
20260905055217 85 21 1.7 5.2 0.00 0.00 0.00 18 1014.8
20260905054712 85 260 4.3 5.2 0.00 0.00 0.00 16 1014.8
20260905054208 85 290 0.9 4.3 0.00 0.00 0.00 17 1014.8
20260905053702 84 243 3.5 5.2 0.00 0.00 0.00 19 1014.9
20260905053156 84 261 0.0 2.6 0.00 0.00 0.00 19 1014.9
20260905052650 84 227 5.2 5.2 0.00 0.00 0.00 18 1015.0
20260905052145 81 234 0.0 2.6 0.00 0.00 0.00 21 1015.0
20260905051640 82 221 1.7 1.7 0.00 0.00 0.00 21 1015.0
20260905051138 82 147 0.9 1.7 0.00 0.00 0.00 21 1015.0
20260905050633 82 193 1.7 1.7 0.00 0.00 0.00 21 1014.8
20260905050125 83 220 1.7 2.6 0.00 0.00 0.00 20 1014.7
20260905045624 84 89 0.0 1.7 0.00 0.00 0.00 20 1014.8
20260905045120 84 89 0.9 2.6 0.00 0.00 0.00 20 1014.8
20260905044619 85 262 0.9 3.5 0.00 0.00 0.00 19 1014.6
20260905044114 84 108 1.7 3.5 0.00 0.00 0.00 20 1014.7
20260905043613 85 308 1.7 3.5 0.00 0.00 0.00 18 1014.9
20260905043108 86 253 6.1 7.8 0.00 0.00 0.00 18 1014.6
20260905042606 85 230 5.2 7.0 0.00 0.00 0.00 18 1014.6
20260905042102 86 268 4.3 7.0 0.00 0.00 0.00 20 1014.4
20260905041557 86 259 7.8 7.8 0.00 0.00 0.00 21 1014.5
20260905041053 86 249 5.2 9.6 0.00 0.00 0.00 21 1014.4
20260905040552 86 250 6.1 10.4 0.00 0.00 0.00 22 1014.5
20260905040051 86 255 6.1 9.6 0.00 0.00 0.00 21 1014.3
20260905035546 86 252 7.8 9.6 0.00 0.00 0.00 21 1014.5
20260905035038 87 243 7.8 8.7 0.00 0.00 0.00 21 1014.4
20260905034534 86 243 7.8 9.6 0.00 0.00 0.00 22 1014.2
20260905034033 87 239 7.8 13.0 0.00 0.00 0.00 21 1014.1
20260905033527 87 246 10.4 13.0 0.00 0.00 0.00 22 1013.9
20260905033023 87 258 3.5 7.8 0.00 0.00 0.00 22 1014.0
20260905032518 87 250 5.2 11.3 0.00 0.00 0.00 22 1013.8
20260905032013 87 251 7.8 11.3 0.00 0.00 0.00 22 1013.7
20260905031509 87 242 7.8 12.2 0.00 0.00 0.00 23 1013.7
20260905031003 87 263 6.1 11.3 0.00 0.00 0.00 22 1013.7
20260905030459 87 258 4.3 6.1 0.00 0.00 0.00 23 1013.7
20260905025957 88 265 4.3 12.2 0.00 0.00 0.00 22 1013.5
20260905025453 88 248 9.6 10.4 0.00 0.00 0.00 20 1013.6
20260905024950 89 269 4.3 10.4 0.00 0.00 0.00 17 1013.7
20260905024449 89 267 8.7 16.5 0.00 0.00 0.00 20 1013.4
20260905023945 89 261 7.8 14.8 0.00 0.00 0.00 17 1013.6
20260905023440 89 246 5.2 10.4 0.00 0.00 0.00 17 1013.5
20260905022939 89 226 4.3 7.8 0.00 0.00 0.00 20 1013.5
20260905022434 89 243 6.1 9.6 0.00 0.00 0.00 22 1013.3
20260905021930 89 261 5.2 9.6 0.00 0.00 0.00 23 1013.3
20260905021429 89 262 3.5 11.3 0.00 0.00 0.00 22 1013.1
20260905020924 89 259 3.5 4.3 0.00 0.00 0.00 22 1013.1
20260905020424 90 278 2.6 13.0 0.00 0.00 0.00 22 1013.1
20260905015924 90 246 3.5 8.7 0.00 0.00 0.00 23 1013.2
20260905015422 90 241 7.0 11.3 0.00 0.00 0.00 22 1013.1
20260905014921 90 252 7.8 9.6 0.00 0.00 0.00 23 1013.1
20260905014417 90 298 4.3 8.7 0.00 0.00 0.00 23 1013.0
20260905013913 90 308 4.3 10.4 0.00 0.00 0.00 23 1013.0
20260905013409 91 249 4.3 11.3 0.00 0.00 0.00 23 1013.0
20260905012904 91 275 6.1 6.1 0.00 0.00 0.00 22 1013.0
20260905012359 91 279 2.6 5.2 0.00 0.00 0.00 23 1012.9
20260905011856 91 274 5.2 14.8 0.00 0.00 0.00 21 1012.8
20260905011351 92 263 5.2 13.0 0.00 0.00 0.00 21 1013.0
20260905010847 91 275 7.0 13.0 0.00 0.00 0.00 23 1012.9
20260905010341 93 264 4.3 14.8 0.00 0.00 0.00 22 1013.1
20260905005838 93 290 5.2 16.5 0.00 0.00 0.00 21 1012.9
20260905005333 94 267 6.1 18.2 0.00 0.00 0.00 20 1012.9
20260905004828 95 245 7.8 14.8 0.00 0.00 0.00 19 1012.8
20260905004322 95 303 7.8 13.0 0.00 0.00 0.00 20 1012.6
20260905003818 96 325 1.7 7.0 0.00 0.00 0.00 20 1012.7
20260905003315 95 276 6.1 13.0 0.00 0.00 0.00 19 1012.7
20260905002814 95 253 5.2 19.1 0.00 0.00 0.00 20 1012.9
20260905002309 95 249 7.0 14.8 0.00 0.00 0.00 21 1012.7
20260905001804 96 247 12.2 13.0 0.00 0.00 0.00 20 1012.6
20260905001304 96 257 7.8 13.0 0.00 0.00 0.00 21 1012.8
20260905000759 96 262 7.0 13.0 0.00 0.00 0.00 21 1012.7
20260905000255 96 271 5.2 14.8 0.00 0.00 0.00 20 1012.5
20260904235749 96 293 12.2 15.6 0.00 0.00 0.00 20 1012.6
20260904235244 97 269 6.1 18.2 0.00 0.00 0.00 20 1012.3
20260904234739 98 296 5.2 10.4 0.00 0.00 0.00 18 1012.4
20260904234234 98 258 6.1 12.2 0.00 0.00 0.00 18 1012.5
20260904233730 97 296 5.2 13.0 0.00 0.00 0.00 19 1012.7
20260904233226 99 249 5.2 13.9 0.00 0.00 0.00 18 1012.7
20260904232722 98 241 11.3 13.0 0.00 0.00 0.00 17 1012.7
20260904232218 100 222 8.7 14.8 0.00 0.00 0.00 17 1012.7
20260904231714 99 234 7.8 16.5 0.00 0.00 0.00 18 1012.8
20260904231209 100 221 7.8 15.6 0.00 0.00 0.00 17 1012.7
20260904230708 100 243 13.9 18.2 0.00 0.00 0.00 17 1012.7
20260904230157 100 239 4.3 14.8 0.00 0.00 0.00 16 1012.7
20260904225656 100 222 6.1 13.9 0.00 0.00 0.00 16 1012.7
20260904225150 101 215 7.0 13.0 0.00 0.00 0.00 15 1012.7
20260904224644 100 243 8.7 16.5 0.00 0.00 0.00 15 1012.7
20260904224139 101 236 8.7 11.3 0.00 0.00 0.00 14 1012.6
20260904223638 99 256 7.8 13.9 0.00 0.00 0.00 15 1012.7
20260904223134 100 229 7.8 13.0 0.00 0.00 0.00 14 1012.7
20260904222630 101 192 5.2 13.9 0.00 0.00 0.00 13 1012.8
20260904222125 102 205 5.2 10.4 0.00 0.00 0.00 14 1012.9
20260904221620 100 231 6.1 14.8 0.00 0.00 0.00 14 1012.7
20260904221119 101 207 3.5 11.3 0.00 0.00 0.00 14 1012.9
20260904220614 101 226 10.4 13.9 0.00 0.00 0.00 13 1012.7
20260904220109 100 229 7.0 18.2 0.00 0.00 0.00 13 1012.9
20260904215603 102 220 13.9 16.5 0.00 0.00 0.00 13 1012.9
20260904215059 101 215 5.2 11.3 0.00 0.00 0.00 13 1012.9
20260904214554 101 220 8.7 13.0 0.00 0.00 0.00 13 1013.0
20260904214050 102 232 5.2 12.2 0.00 0.00 0.00 13 1013.0
20260904213548 101 217 5.2 15.6 0.00 0.00 0.00 13 1012.9
20260904213045 102 231 7.0 13.0 0.00 0.00 0.00 12 1013.1
20260904212544 102 227 7.0 12.2 0.00 0.00 0.00 12 1013.0
20260904212040 101 203 7.0 11.3 0.00 0.00 0.00 13 1013.1
20260904211539 101 207 4.3 14.8 0.00 0.00 0.00 13 1012.9
20260904211035 102 229 0.9 11.3 0.00 0.00 0.00 12 1012.9
20260904210534 101 219 9.6 14.8 0.00 0.00 0.00 13 1013.0
20260904210031 102 235 11.3 15.6 0.00 0.00 0.00 13 1013.1
20260904205531 101 227 1.7 9.6 0.00 0.00 0.00 13 1013.2
20260904205027 102 241 7.0 10.4 0.00 0.00 0.00 12 1013.3
20260904204523 101 235 7.8 9.6 0.00 0.00 0.00 13 1013.1
20260904204019 102 233 8.7 13.0 0.00 0.00 0.00 13 1013.2
20260904203515 100 244 7.8 11.3 0.00 0.00 0.00 14 1013.2
20260904203011 101 226 1.7 2.6 0.00 0.00 0.00 12 1013.4
20260904202507 101 220 7.0 8.7 0.00 0.00 0.00 12 1013.1
20260904202003 102 244 11.3 13.0 0.00 0.00 0.00 12 1013.1
20260904201457 100 252 6.1 15.6 0.00 0.00 0.00 12 1013.4
20260904200953 101 213 1.7 13.0 0.00 0.00 0.00 12 1013.4
20260904200451 101 242 11.3 13.9 0.00 0.00 0.00 12 1013.3
20260904195952 100 6 0.0 2.6 0.00 0.00 0.00 13 1013.6
20260904195450 99 149 2.6 5.2 0.00 0.00 0.00 12 1013.5
20260904194949 100 274 2.6 4.3 0.00 0.00 0.00 13 1013.6
20260904194444 100 305 0.0 2.6 0.00 0.00 0.00 13 1013.6
20260904193939 99 271 1.7 2.6 0.00 0.00 0.00 12 1013.9
20260904193435 99 24 0.9 2.6 0.00 0.00 0.00 13 1014.0
20260904192930 98 338 1.7 4.3 0.00 0.00 0.00 13 1014.0
20260904192425 99 78 1.7 4.3 0.00 0.00 0.00 13 1014.0
20260904191921 99 35 1.7 3.5 0.00 0.00 0.00 13 1014.0
20260904191418 99 43 2.6 3.5 0.00 0.00 0.00 13 1014.0
20260904190914 98 85 1.7 5.2 0.00 0.00 0.00 13 1014.3
20260904190409 100 238 0.0 1.7 0.00 0.00 0.00 13 1014.3
20260904185906 98 242 0.0 2.6 0.00 0.00 0.00 14 1014.4
20260904185401 97 310 0.0 1.7 0.00 0.00 0.00 14 1014.6
20260904184901 96 119 0.9 6.1 0.00 0.00 0.00 14 1014.7
20260904184356 98 82 2.6 3.5 0.00 0.00 0.00 13 1014.8
20260904183851 98 346 0.9 2.6 0.00 0.00 0.00 14 1014.7
20260904183346 98 81 2.6 2.6 0.00 0.00 0.00 14 1014.7
20260904182842 96 129 0.0 2.6 0.00 0.00 0.00 14 1015.0
20260904182336 97 85 2.6 3.5 0.00 0.00 0.00 14 1015.0
20260904181832 96 70 1.7 3.5 0.00 0.00 0.00 14 1015.0
20260904181332 96 317 4.3 4.3 0.00 0.00 0.00 15 1015.1
20260904180827 95 219 1.7 4.3 0.00 0.00 0.00 15 1015.1
20260904180323 95 79 2.6 4.3 0.00 0.00 0.00 15 1015.0
20260904175821 95 79 1.7 2.6 0.00 0.00 0.00 15 1015.0
20260904175320 95 88 2.6 3.5 0.00 0.00 0.00 14 1014.9
20260904174815 94 268 1.7 1.7 0.00 0.00 0.00 14 1015.2
20260904174311 93 348 1.7 3.5 0.00 0.00 0.00 16 1014.9
20260904173807 93 41 0.0 2.6 0.00 0.00 0.00 15 1015.1
20260904173302 93 296 0.0 2.6 0.00 0.00 0.00 15 1015.0
20260904172758 91 296 2.6 3.5 0.00 0.00 0.00 15 1015.2
20260904172257 93 35 0.9 1.7 0.00 0.00 0.00 16 1015.3
20260904171753 92 98 0.0 0.9 0.00 0.00 0.00 15 1015.2
20260904171248 93 235 0.9 2.6 0.00 0.00 0.00 15 1015.2